Home > Weather > Campbell River > Past weeks

Flag for Canada Weather for the Past 2 Weeks in Campbell River, British Columbia, Canada

Now
50 °F

Partly sunny.


Feels Like: 45 °F
Forecast: 40 / 50 °F
Wind: 15 mph from Southeast

Location: Campbell River Airport

Current Time: Feb 10, 2016 at 2:14:05 PM

Latest Report: Feb 10, 2016 at 1:00 PM


Visibility: 15 mi

Pressure: 30.06 "Hg

Humidity: 82%

Dew point: 45 °F

Location of Campbell RiverLocation

Historic Weather in Campbell River — Graph

°F

Campbell River Temperature Yesterday

Maximum temperature yesterday: 46 °F (at 12:00 PM)
Minimum temperature yesterday: 28 °F (at 6:00 AM)
Average temperature yesterday: 38 °F

High & Low Weather Summary for the Past Weeks

 TemperatureHumidityPressure
High52 °F (Jan 28, 11:00 AM)100% (Jan 26, 12:00 PM)30.60 "Hg (Jan 26, 12:00 PM)
Low25 °F (Feb 1, 7:00 AM)54% (Jan 28, 1:00 PM)29.52 "Hg (Jan 29, 1:00 PM)
Average41 °F93%30.09 "Hg
* Reported Jan 26 12:00 Noon — Feb 10 12:00 Noon, Campbell River, Weather by CustomWeather, © 2016

Note: Actual official high and low records may vary slightly from our data, if they occured in-between our weather recording intervals... More about our weather records

Advertising

Campbell River Weather History for the Previous 24 Hours

 ConditionsComfort  
Time TempWeatherWind HumidityBarometerVisibility
12:00 PM
Wed, Feb 10
50 °FBroken clouds.13 mph82%30.07 "Hg15 mi
11:00 AM48 °FBroken clouds.10 mph87%30.08 "Hg10 mi
10:00 AM43 °FFog.No wind100%30.07 "Hg2 mi
9:00 AM41 °FFog.2 mph100%30.06 "Hg1 mi
8:00 AM39 °FFog.2 mph100%30.06 "Hg3 mi
7:55 AM39 °FFog.2 mph100%30.06 "Hg3 mi
7:00 AM41 °FFog.No wind93%30.06 "Hg6 mi
6:53 AM41 °FMostly cloudy.2 mph93%30.06 "Hg10 mi
6:00 AM39 °FMostly cloudy.No wind100%30.05 "Hg15 mi
9:00 PM
Tue, Feb 9
36 °FPartly cloudy.3 mph100%30.09 "Hg7 mi
8:00 PM37 °FPassing clouds.5 mph93%30.09 "Hg10 mi
7:00 PM39 °FPartly cloudy.2 mph100%30.10 "Hg15 mi
6:00 PM39 °FPassing clouds.2 mph100%30.10 "Hg15 mi
5:00 PM41 °FPartly sunny.3 mph100%30.11 "Hg10 mi
4:00 PM43 °FPartly sunny.5 mph93%30.12 "Hg20 mi
3:00 PM41 °FFog.3 mph100%30.12 "Hg1 mi
2:00 PM43 °FPartly sunny.5 mph93%30.13 "Hg30 mi
Weather by CustomWeather, © 2016

See weather overviewHow to use our weather pages